User: anonymous
Location: Newark
(40.7360°N, 74.1730°W)
Time: 19:34:27
(UTC-04:00)
Language:

ISS - Orbit

View from above orbital plane
View from above orbital plane
View from above satellite
View from above satellite

Ground track
Ground track

The orbit data is extracted from the following two-line orbital elements,

1 25544U 98067A   14244.81797071  .00011492  00000-0  20782-3 0    74
2 25544 051.6456 079.7646 0003628 073.3382 060.1712 15.50167132903216
Epoch (UTC): 01 September 2014 19:37:52
Eccentricity: 0.0003628
inclination: 51.6456°
perigee height: 414 km
apogee height: 419 km
right ascension of ascending node: 79.7646°
argument of perigee: 73.3382°
revolutions per day: 15.50167132
mean anomaly at epoch: 60.1712°
orbit number at epoch: 90321

The dashed part of the orbit path shows where the satellite is in the earth's shadow,  

DLR